Home > Weather > Zárate > Past weeks

Flag for Argentina Past Weather in Zárate, Buenos Aires, Argentina — Yesterday and Last 2 Weeks

Now
54 °F

Broken clouds.


Feels Like: 51 °F
Forecast: 45 / 56 °F
Wind: 9 mph from South

Location: Buenos Aires Airport

Current Time: Jun 25, 2016 at 2:43:07 PM

Latest Report: Jun 25, 2016 at 2:00 PM


Visibility: 5 mi

Pressure: 30.27 "Hg

Humidity: 82%

Dew Point: 48 °F

Location of ZárateLocation

Past Weather in Zárate — Graph

°F

Zárate Temperature Yesterday

Maximum temperature yesterday: 57 °F (at 1:00 PM)
Minimum temperature yesterday: 54 °F (at 6:00 AM)
Average temperature yesterday: 56 °F

High & Low Weather Summary for the Past Weeks

 TemperatureHumidityPressure
High64 °F (Jun 17, 4:00 PM)100% (Jun 16, 12:00 AM)30.48 "Hg (Jun 16, 12:00 AM)
Low39 °F (Jun 11, 6:00 AM)39% (Jun 11, 3:00 PM)30.12 "Hg (Jun 23, 4:00 PM)
Average52 °F77%30.28 "Hg
* Reported Jun 10 1:00 PM — Jun 25 1:00 PM, Zárate, Weather by CustomWeather, © 2016

Note: Actual official high and low records may vary slightly from our data, if they occured in-between our weather recording intervals... More about our weather records

Advertising

Zárate Weather History for the Previous 24 Hours

Scroll right to see more
 ConditionsComfort  
Time TempWeatherWind HumidityBarometerVisibility
1:00 PM
Sat, Jun 25
54 °FPartly sunny.9 mph82%30.27 "Hg5 mi
12:00 PM54 °FBroken clouds.8 mph82%30.27 "Hg4 mi
11:00 AM52 °FClear.6 mph88%30.27 "Hg4 mi
10:00 AM48 °FPartly sunny.6 mph94%30.30 "Hg4 mi
9:00 AM50 °FBroken clouds.5 mph94%30.27 "Hg3 mi
8:00 AM50 °FFog.2 mph94%30.27 "Hg2 mi
7:00 AM52 °FClear.3 mph94%30.24 "Hg4 mi
6:00 AM52 °FClear.2 mph94%30.24 "Hg4 mi
5:00 AM54 °FClear.2 mph88%30.24 "Hg6 mi
4:00 AM54 °FPartly cloudy.No wind94%30.24 "Hg6 mi
3:00 AM54 °FClear.No wind94%30.24 "Hg5 mi
2:00 AM54 °FClear.3 mph94%30.24 "Hg5 mi
12:00 AM54 °FPartly cloudy.7 mph94%30.21 "HgN/A
11:00 PM
Fri, Jun 24
54 °FPassing clouds.9 mph94%30.24 "HgN/A
10:00 PM54 °FClear.8 mph94%30.24 "Hg10 mi
9:00 PM55 °FClear.12 mph88%30.24 "Hg10 mi
8:00 PM55 °FClear.9 mph88%30.21 "Hg10 mi
7:00 PM55 °FClear.8 mph88%30.21 "Hg10 mi
6:00 PM55 °FClear.9 mph88%30.18 "Hg10 mi
5:00 PM57 °FPassing clouds.7 mph77%30.18 "HgN/A
4:00 PM57 °FPartly sunny.6 mph77%30.18 "HgN/A
3:00 PM57 °FBroken clouds.7 mph77%30.18 "HgN/A
2:00 PM57 °FSunny.5 mph77%30.18 "Hg10 mi
Weather by CustomWeather, © 2016

See weather overviewHow to use our weather pages